GLO9936 SBCX-SBGR

Flight info

Callsign GLO9936
Flight time 1h 25m
Altitude FL370
Route PENSO UZ121 BUXUK
Aircraft B738/M-S/N

Departure

Time 2026-04-17 21:21
Airport Hugo Cantergiani Regional Airport (SBCX)

Arrival

Time 2026-04-17 22:47
Airport São Paulo/Guarulhos–Governor André Franco Montoro International Airport (SBGR)
Time Latitude Longitude Altitude Speed Heading
2026-04-17 21:10 -29.19702 -51.18618 2483 ft 0 kts 91°
2026-04-17 21:14 -29.19702 -51.18627 2483 ft 2 kts 91°
2026-04-17 21:14 -29.19702 -51.18643 2483 ft 3 kts 91°
2026-04-17 21:15 -29.19702 -51.18657 2483 ft 0 kts 91°
2026-04-17 21:15 -29.19702 -51.18656 2483 ft 0 kts 91°
2026-04-17 21:15 -29.19703 -51.18650 2483 ft 1 kts 108°
2026-04-17 21:15 -29.19709 -51.18641 2483 ft 2 kts 133°
2026-04-17 21:16 -29.19723 -51.18626 2483 ft 4 kts 141°
2026-04-17 21:16 -29.19750 -51.18616 2483 ft 5 kts 189°
2026-04-17 21:16 -29.19777 -51.18637 2483 ft 5 kts 227°
2026-04-17 21:16 -29.19798 -51.18657 2483 ft 4 kts 195°
2026-04-17 21:17 -29.19822 -51.18649 2483 ft 4 kts 143°
2026-04-17 21:17 -29.19847 -51.18625 2483 ft 6 kts 139°
2026-04-17 21:17 -29.19881 -51.18587 2483 ft 8 kts 135°
2026-04-17 21:17 -29.19926 -51.18537 2483 ft 10 kts 135°
2026-04-17 21:18 -29.19982 -51.18474 2483 ft 12 kts 137°
2026-04-17 21:18 -29.20051 -51.18400 2483 ft 13 kts 136°
2026-04-17 21:18 -29.20119 -51.18324 2483 ft 14 kts 136°
2026-04-17 21:18 -29.20194 -51.18243 2483 ft 15 kts 136°
2026-04-17 21:19 -29.20256 -51.18175 2483 ft 11 kts 135°
2026-04-17 21:19 -29.20292 -51.18113 2483 ft 9 kts 97°
2026-04-17 21:19 -29.20313 -51.18082 2483 ft 3 kts 182°
2026-04-17 21:19 -29.20327 -51.18099 2483 ft 3 kts 258°
2026-04-17 21:20 -29.20323 -51.18114 2483 ft 2 kts 307°
2026-04-17 21:20 -29.20313 -51.18120 2483 ft 2 kts 345°
2026-04-17 21:20 -29.20301 -51.18124 2483 ft 2 kts 333°
2026-04-17 21:20 -29.20293 -51.18132 2483 ft 2 kts 315°
2026-04-17 21:21 -29.20152 -51.18289 2483 ft 64 kts 316°
2026-04-17 21:21 -29.19658 -51.18835 2483 ft 130 kts 316°
2026-04-17 21:21 -29.18929 -51.19641 2829 ft 153 kts 315°
2026-04-17 21:21 -29.18093 -51.20538 3386 ft 180 kts 316°
2026-04-17 21:22 -29.17114 -51.21591 3952 ft 210 kts 316°
2026-04-17 21:22 -29.16003 -51.22820 4532 ft 234 kts 315°
2026-04-17 21:22 -29.14943 -51.24000 5149 ft 249 kts 316°
2026-04-17 21:22 -29.13747 -51.25334 6265 ft 249 kts 316°
2026-04-17 21:23 -29.12406 -51.26765 7416 ft 251 kts 323°
2026-04-17 21:23 -29.10777 -51.27477 8400 ft 255 kts 354°
2026-04-17 21:23 -29.09062 -51.27036 9467 ft 260 kts 24°
2026-04-17 21:23 -29.07766 -51.25577 10436 ft 276 kts 52°
2026-04-17 21:24 -29.07117 -51.23402 10898 ft 305 kts 77°
2026-04-17 21:24 -29.06793 -51.20922 11360 ft 327 kts 76°
2026-04-17 21:24 -29.06055 -51.18461 12127 ft 329 kts 60°
2026-04-17 21:24 -29.04813 -51.16297 12636 ft 324 kts 46°
2026-04-17 21:25 -29.03316 -51.14429 12921 ft 322 kts 40°
2026-04-17 21:25 -29.01728 -51.12590 12992 ft 322 kts 40°
2026-04-17 21:25 -29.00172 -51.10770 13001 ft 321 kts 40°
2026-04-17 21:25 -28.98604 -51.08954 13001 ft 321 kts 40°
2026-04-17 21:26 -28.97034 -51.07157 12999 ft 320 kts 38°
2026-04-17 21:26 -28.95272 -51.05657 13002 ft 313 kts 24°
2026-04-17 21:26 -28.93305 -51.04664 13495 ft 312 kts 15°
2026-04-17 21:26 -28.91278 -51.03847 14460 ft 310 kts 13°
2026-04-17 21:27 -28.89222 -51.03035 15319 ft 314 kts 14°
2026-04-17 21:27 -28.87159 -51.02218 16152 ft 318 kts 13°
2026-04-17 21:27 -28.85068 -51.01390 16938 ft 322 kts 13°
2026-04-17 21:27 -28.82937 -51.00557 17710 ft 325 kts 13°
2026-04-17 21:28 -28.80794 -50.99701 18456 ft 330 kts 14°
2026-04-17 21:28 -28.78607 -50.98907 19182 ft 331 kts
2026-04-17 21:28 -28.76366 -50.98368 19974 ft 329 kts
2026-04-17 21:28 -28.74111 -50.97908 20775 ft 330 kts
2026-04-17 21:29 -28.72013 -50.97466 21469 ft 331 kts
2026-04-17 21:29 -28.69731 -50.96984 22208 ft 332 kts
2026-04-17 21:29 -28.67985 -50.96611 22757 ft 333 kts
2026-04-17 21:29 -28.66529 -50.96289 23206 ft 334 kts
2026-04-17 21:30 -28.64267 -50.95775 23892 ft 334 kts
2026-04-17 21:30 -28.61990 -50.95250 24571 ft 336 kts
2026-04-17 21:30 -28.59649 -50.94712 24849 ft 352 kts
2026-04-17 21:30 -28.57177 -50.94146 25111 ft 372 kts
2026-04-17 21:31 -28.54591 -50.93552 25336 ft 387 kts
2026-04-17 21:31 -28.51940 -50.92945 25860 ft 390 kts
2026-04-17 21:31 -28.49269 -50.92334 26461 ft 393 kts
2026-04-17 21:31 -28.46594 -50.91720 26982 ft 396 kts
2026-04-17 21:32 -28.43891 -50.91105 27506 ft 399 kts
2026-04-17 21:32 -28.41166 -50.90485 28014 ft 402 kts
2026-04-17 21:32 -28.38418 -50.89862 28511 ft 405 kts
2026-04-17 21:32 -28.35649 -50.89235 28994 ft 408 kts
2026-04-17 21:33 -28.32870 -50.88606 29461 ft 411 kts
2026-04-17 21:33 -28.30069 -50.87973 30148 ft 406 kts
2026-04-17 21:33 -28.27299 -50.87349 30577 ft 410 kts
2026-04-17 21:33 -28.24483 -50.86716 30820 ft 418 kts
2026-04-17 21:34 -28.21609 -50.86071 31098 ft 423 kts
2026-04-17 21:34 -28.18728 -50.85424 31574 ft 424 kts
2026-04-17 21:34 -28.12914 -50.84113 32303 ft 430 kts
2026-04-17 21:35 -28.09986 -50.83444 32657 ft 433 kts
2026-04-17 21:35 -28.07035 -50.82635 32973 ft 441 kts 15°
2026-04-17 21:35 -28.04309 -50.81077 33315 ft 450 kts 27°
2026-04-17 21:35 -28.01677 -50.79128 33772 ft 450 kts 30°
2026-04-17 21:36 -27.99055 -50.77118 33852 ft 459 kts 31°
2026-04-17 21:36 -27.93700 -50.73015 34028 ft 475 kts 31°
2026-04-17 21:37 -27.88214 -50.68632 34187 ft 490 kts 33°
2026-04-17 21:37 -27.85448 -50.66363 34315 ft 495 kts 33°
2026-04-17 21:37 -27.82677 -50.64094 34693 ft 493 kts 33°
2026-04-17 21:37 -27.79912 -50.61834 35049 ft 492 kts 33°
2026-04-17 21:38 -27.77140 -50.59572 35449 ft 490 kts 33°
2026-04-17 21:38 -27.74385 -50.57323 35760 ft 490 kts 33°
2026-04-17 21:38 -27.71625 -50.55077 36073 ft 490 kts 32°
2026-04-17 21:38 -27.68866 -50.52832 36375 ft 490 kts 33°
2026-04-17 21:39 -27.66116 -50.50596 36658 ft 490 kts 32°
2026-04-17 21:39 -27.60552 -50.46048 36785 ft 500 kts 33°
2026-04-17 21:40 -27.54927 -50.41460 36822 ft 498 kts 32°
2026-04-17 21:40 -27.49341 -50.36911 36821 ft 497 kts 33°
2026-04-17 21:41 -27.43785 -50.32292 36821 ft 498 kts 33°
2026-04-17 21:41 -27.38193 -50.27735 36821 ft 497 kts 32°
2026-04-17 21:42 -27.32593 -50.23194 36826 ft 497 kts 32°
2026-04-17 21:42 -27.26995 -50.18676 36820 ft 497 kts 32°
2026-04-17 21:43 -27.21381 -50.14154 36820 ft 497 kts 32°
2026-04-17 21:43 -27.15769 -50.09651 36819 ft 497 kts 32°
2026-04-17 21:44 -27.10151 -50.05151 36813 ft 498 kts 32°
2026-04-17 21:44 -27.04557 -50.00652 36779 ft 495 kts 32°
2026-04-17 21:45 -26.98970 -49.96160 36777 ft 496 kts 32°
2026-04-17 21:45 -26.93369 -49.91664 36777 ft 496 kts 32°
2026-04-17 21:46 -26.87775 -49.87155 36778 ft 496 kts 32°
2026-04-17 21:46 -26.82199 -49.82686 36784 ft 494 kts 32°
2026-04-17 21:47 -26.77008 -49.78548 36785 ft 495 kts 32°
2026-04-17 21:47 -26.72110 -49.74617 36786 ft 495 kts 32°
2026-04-17 21:48 -26.66191 -49.69891 36785 ft 495 kts 32°
2026-04-17 21:48 -26.60586 -49.65438 36779 ft 495 kts 32°
2026-04-17 21:49 -26.54994 -49.60991 36778 ft 495 kts 32°
2026-04-17 21:49 -26.49397 -49.56546 36777 ft 495 kts 32°
2026-04-17 21:50 -26.43819 -49.52082 36778 ft 495 kts 32°
2026-04-17 21:50 -26.38230 -49.47608 36797 ft 495 kts 32°
2026-04-17 21:51 -26.32653 -49.43161 36820 ft 494 kts 32°
2026-04-17 21:51 -26.27066 -49.38717 36820 ft 495 kts 32°
2026-04-17 21:52 -26.21459 -49.34269 36820 ft 496 kts 32°
2026-04-17 21:52 -26.15853 -49.29860 36819 ft 494 kts 31°
2026-04-17 21:53 -26.10248 -49.25489 36814 ft 493 kts 31°
2026-04-17 21:53 -26.04411 -49.21572 36814 ft 491 kts 26°
2026-04-17 21:54 -25.98551 -49.17709 36815 ft 492 kts 27°
2026-04-17 21:54 -25.92712 -49.13794 36815 ft 491 kts 27°
2026-04-17 21:55 -25.86852 -49.09900 36822 ft 492 kts 27°
2026-04-17 21:55 -25.80989 -49.06028 36822 ft 492 kts 27°
2026-04-17 21:56 -25.75119 -49.02168 36822 ft 492 kts 27°
2026-04-17 21:56 -25.69261 -48.98268 36821 ft 492 kts 27°
2026-04-17 21:57 -25.63394 -48.94359 36829 ft 495 kts 27°
2026-04-17 21:57 -25.57495 -48.90449 36829 ft 495 kts 27°
2026-04-17 21:58 -25.51602 -48.86561 36829 ft 495 kts 27°
2026-04-17 21:58 -25.45678 -48.82702 36829 ft 495 kts 26°
2026-04-17 21:59 -25.39657 -48.79030 36793 ft 495 kts 25°
2026-04-17 21:59 -25.33643 -48.75376 36770 ft 494 kts 25°
2026-04-17 22:00 -25.27630 -48.71747 36770 ft 495 kts 24°
2026-04-17 22:00 -25.21594 -48.68111 36770 ft 496 kts 25°
2026-04-17 22:01 -25.15560 -48.64469 36773 ft 495 kts 25°
2026-04-17 22:01 -25.09543 -48.60857 36788 ft 493 kts 25°
2026-04-17 22:02 -25.03538 -48.57259 36789 ft 494 kts 25°
2026-04-17 22:02 -24.97509 -48.53637 36789 ft 494 kts 25°
2026-04-17 22:03 -24.91475 -48.50019 36788 ft 495 kts 25°
2026-04-17 22:03 -24.85488 -48.46341 36814 ft 493 kts 25°
2026-04-17 22:04 -24.79475 -48.42737 36814 ft 494 kts 24°
2026-04-17 22:04 -24.73461 -48.39103 36814 ft 494 kts 24°
2026-04-17 22:05 -24.67446 -48.35486 36815 ft 494 kts 25°
2026-04-17 22:05 -24.61579 -48.31958 36801 ft 496 kts 24°
2026-04-17 22:06 -24.55873 -48.28535 36796 ft 497 kts 24°
2026-04-17 22:06 -24.49697 -48.24828 36796 ft 498 kts 24°
2026-04-17 22:07 -24.43645 -48.21171 36796 ft 498 kts 24°
2026-04-17 22:07 -24.37583 -48.17545 36786 ft 498 kts 24°
2026-04-17 22:08 -24.31480 -48.13965 36779 ft 499 kts 23°
2026-04-17 22:08 -24.25384 -48.10379 36780 ft 499 kts 23°
2026-04-17 22:08 -24.22363 -48.08599 36776 ft 487 kts 23°
2026-04-17 22:09 -24.19434 -48.06878 36723 ft 471 kts 23°
2026-04-17 22:09 -24.16589 -48.05204 36520 ft 459 kts 23°
2026-04-17 22:09 -24.14721 -48.04107 36086 ft 459 kts 23°
2026-04-17 22:09 -24.11241 -48.02062 35057 ft 465 kts 23°
2026-04-17 22:10 -24.08486 -48.00443 34565 ft 461 kts 23°
2026-04-17 22:10 -24.05829 -47.98881 33913 ft 461 kts 24°
2026-04-17 22:10 -24.02816 -47.97110 33060 ft 465 kts 24°
2026-04-17 22:10 -23.99988 -47.95448 32385 ft 464 kts 24°
2026-04-17 22:11 -23.97159 -47.93786 31630 ft 465 kts 24°
2026-04-17 22:11 -23.94308 -47.92112 30876 ft 465 kts 25°
2026-04-17 22:11 -23.91465 -47.90443 30094 ft 466 kts 25°
2026-04-17 22:11 -23.88635 -47.88782 29356 ft 466 kts 25°
2026-04-17 22:12 -23.85821 -47.87130 29132 ft 454 kts 25°
2026-04-17 22:12 -23.83001 -47.85476 28951 ft 463 kts 25°
2026-04-17 22:12 -23.80178 -47.83818 28700 ft 457 kts 25°
2026-04-17 22:12 -23.77469 -47.82074 28355 ft 450 kts 30°
2026-04-17 22:13 -23.75014 -47.80039 28007 ft 446 kts 37°
2026-04-17 22:13 -23.73805 -47.78870 27823 ft 443 kts 40°
2026-04-17 22:14 -23.71993 -47.76989 27536 ft 439 kts 41°
2026-04-17 22:14 -23.70055 -47.74944 27223 ft 434 kts 41°
2026-04-17 22:14 -23.68802 -47.73632 27019 ft 430 kts 41°
2026-04-17 22:15 -23.66347 -47.71056 26618 ft 425 kts 41°
2026-04-17 22:15 -23.64221 -47.68820 26261 ft 420 kts 41°
2026-04-17 22:15 -23.62118 -47.66633 25910 ft 416 kts 41°
2026-04-17 22:15 -23.60054 -47.64489 25561 ft 412 kts 41°
2026-04-17 22:16 -23.57986 -47.62343 25209 ft 408 kts 41°
2026-04-17 22:16 -23.55950 -47.60206 24887 ft 404 kts 41°
2026-04-17 22:16 -23.53971 -47.58110 24590 ft 400 kts 41°
2026-04-17 22:16 -23.51954 -47.56018 24285 ft 395 kts 41°
2026-04-17 22:17 -23.49984 -47.53942 23984 ft 394 kts 42°
2026-04-17 22:17 -23.48039 -47.51876 23686 ft 394 kts 42°
2026-04-17 22:17 -23.46073 -47.49803 23383 ft 391 kts 42°
2026-04-17 22:17 -23.44140 -47.47750 23085 ft 388 kts 43°
2026-04-17 22:18 -23.42225 -47.45700 22782 ft 385 kts 43°
2026-04-17 22:18 -23.40323 -47.43668 22481 ft 383 kts 43°
2026-04-17 22:18 -23.38407 -47.41668 22180 ft 381 kts 41°
2026-04-17 22:18 -23.36500 -47.39710 21881 ft 378 kts 42°
2026-04-17 22:19 -23.34615 -47.37716 21578 ft 376 kts 43°
2026-04-17 22:19 -23.32761 -47.35744 21278 ft 373 kts 43°
2026-04-17 22:19 -23.30897 -47.33786 20976 ft 371 kts 43°
2026-04-17 22:19 -23.29064 -47.31866 20678 ft 369 kts 43°
2026-04-17 22:20 -23.27823 -47.30573 20475 ft 367 kts 43°
2026-04-17 22:20 -23.25384 -47.28031 20074 ft 364 kts 43°
2026-04-17 22:20 -23.23565 -47.26141 19775 ft 362 kts 43°
2026-04-17 22:20 -23.21763 -47.24270 19476 ft 360 kts 43°
2026-04-17 22:21 -23.19946 -47.22382 19172 ft 358 kts 43°
2026-04-17 22:21 -23.18174 -47.20537 18887 ft 352 kts 42°
2026-04-17 22:21 -23.16432 -47.18739 18587 ft 347 kts 41°
2026-04-17 22:21 -23.14710 -47.16935 18285 ft 342 kts 43°
2026-04-17 22:22 -23.13618 -47.15691 18083 ft 339 kts 44°
2026-04-17 22:22 -23.11494 -47.13197 17679 ft 334 kts 45°
2026-04-17 22:22 -23.09928 -47.11358 17377 ft 330 kts 44°
2026-04-17 22:22 -23.08382 -47.09548 17076 ft 326 kts 44°
2026-04-17 22:23 -23.06851 -47.07754 16775 ft 324 kts 44°
2026-04-17 22:23 -23.05330 -47.05972 16473 ft 321 kts 44°
2026-04-17 22:23 -23.03814 -47.04193 16170 ft 321 kts 44°
2026-04-17 22:23 -23.02295 -47.02408 15869 ft 324 kts 45°
2026-04-17 22:24 -23.00765 -47.00609 15570 ft 327 kts 45°
2026-04-17 22:24 -22.99223 -46.98793 15269 ft 327 kts 45°
2026-04-17 22:24 -22.97699 -46.96963 14967 ft 326 kts 46°
2026-04-17 22:24 -22.96175 -46.95157 14666 ft 324 kts 45°
2026-04-17 22:25 -22.94650 -46.93382 14366 ft 322 kts 45°
2026-04-17 22:25 -22.93132 -46.91613 14085 ft 318 kts 45°
2026-04-17 22:25 -22.91648 -46.89884 14009 ft 310 kts 45°
2026-04-17 22:25 -22.90212 -46.88193 14002 ft 304 kts 45°
2026-04-17 22:26 -22.88762 -46.86503 14001 ft 309 kts 44°
2026-04-17 22:26 -22.87308 -46.84795 14000 ft 308 kts 45°
2026-04-17 22:26 -22.85949 -46.83031 13988 ft 310 kts 54°
2026-04-17 22:26 -22.85218 -46.80825 13894 ft 315 kts 82°
2026-04-17 22:27 -22.85504 -46.78447 13797 ft 325 kts 109°
2026-04-17 22:27 -22.86744 -46.76443 13699 ft 323 kts 136°
2026-04-17 22:27 -22.88541 -46.75007 13558 ft 320 kts 148°
2026-04-17 22:27 -22.90411 -46.73741 13266 ft 318 kts 149°
2026-04-17 22:28 -22.92300 -46.72505 12976 ft 317 kts 150°
2026-04-17 22:28 -22.94149 -46.71326 12700 ft 315 kts 151°
2026-04-17 22:28 -22.96047 -46.70135 12419 ft 313 kts 151°
2026-04-17 22:28 -22.97719 -46.69085 12170 ft 312 kts 151°
2026-04-17 22:29 -22.99589 -46.67911 11894 ft 310 kts 151°
2026-04-17 22:29 -23.01443 -46.66745 11620 ft 308 kts 151°
2026-04-17 22:29 -23.03291 -46.65583 11346 ft 307 kts 151°
2026-04-17 22:29 -23.05130 -46.64427 11073 ft 305 kts 151°
2026-04-17 22:30 -23.06958 -46.63277 10803 ft 303 kts 151°
2026-04-17 22:30 -23.08766 -46.62139 10537 ft 302 kts 151°
2026-04-17 22:30 -23.10578 -46.60998 10276 ft 300 kts 150°
2026-04-17 22:30 -23.12393 -46.59880 10061 ft 299 kts 152°
2026-04-17 22:31 -23.14329 -46.59114 9987 ft 299 kts 173°
2026-04-17 22:31 -23.16368 -46.59387 10011 ft 299 kts 201°
2026-04-17 22:31 -23.18166 -46.60459 10009 ft 295 kts 217°
2026-04-17 22:31 -23.19753 -46.61839 10003 ft 293 kts 224°
2026-04-17 22:32 -23.21097 -46.63485 10003 ft 290 kts 236°
2026-04-17 22:32 -23.22095 -46.65374 10007 ft 288 kts 247°
2026-04-17 22:32 -23.22808 -46.67402 10007 ft 287 kts 254°
2026-04-17 22:32 -23.23333 -46.69484 10006 ft 286 kts 258°
2026-04-17 22:33 -23.23752 -46.71589 10006 ft 286 kts 261°
2026-04-17 22:33 -23.24136 -46.73706 10006 ft 286 kts 261°
2026-04-17 22:33 -23.24526 -46.75817 10006 ft 286 kts 261°
2026-04-17 22:33 -23.24921 -46.77931 10004 ft 286 kts 259°
2026-04-17 22:34 -23.25621 -46.79950 10006 ft 289 kts 244°
2026-04-17 22:34 -23.26788 -46.81742 10011 ft 291 kts 232°
2026-04-17 22:34 -23.28137 -46.83382 10007 ft 292 kts 230°
2026-04-17 22:34 -23.29633 -46.85173 9969 ft 281 kts 230°
2026-04-17 22:35 -23.29762 -46.85328 9964 ft 277 kts 230°
2026-04-17 22:35 -23.30427 -46.86134 9941 ft 259 kts 228°
2026-04-17 22:35 -23.31538 -46.87492 9913 ft 225 kts 229°
2026-04-17 22:36 -23.32519 -46.88669 9844 ft 199 kts 224°
2026-04-17 22:36 -23.33647 -46.89348 9684 ft 179 kts 191°
2026-04-17 22:36 -23.34765 -46.89035 9486 ft 163 kts 143°
2026-04-17 22:36 -23.35400 -46.88084 9404 ft 151 kts 119°
2026-04-17 22:37 -23.35864 -46.87080 9308 ft 148 kts 116°
2026-04-17 22:37 -23.36311 -46.86064 9121 ft 151 kts 115°
2026-04-17 22:37 -23.36606 -46.85379 8964 ft 149 kts 115°
2026-04-17 22:37 -23.37187 -46.84028 8663 ft 148 kts 115°
2026-04-17 22:38 -23.37619 -46.83022 8423 ft 147 kts 115°
2026-04-17 22:38 -23.38028 -46.82043 8171 ft 144 kts 114°
2026-04-17 22:38 -23.38482 -46.81067 7909 ft 142 kts 118°
2026-04-17 22:38 -23.38972 -46.80149 7660 ft 141 kts 121°
2026-04-17 22:39 -23.39488 -46.79235 7412 ft 141 kts 122°
2026-04-17 22:39 -23.40028 -46.78349 7160 ft 141 kts 124°
2026-04-17 22:39 -23.41010 -46.76536 6714 ft 139 kts 117°
2026-04-17 22:40 -23.41443 -46.75600 6485 ft 139 kts 116°
2026-04-17 22:40 -23.41871 -46.74658 6231 ft 138 kts 116°
2026-04-17 22:40 -23.42305 -46.73736 5982 ft 137 kts 117°
2026-04-17 22:40 -23.42711 -46.72887 5749 ft 137 kts 117°
2026-04-17 22:41 -23.43179 -46.71908 5481 ft 136 kts 117°
2026-04-17 22:41 -23.43616 -46.70993 5230 ft 136 kts 117°
2026-04-17 22:41 -23.44050 -46.70091 4980 ft 135 kts 117°
2026-04-17 22:41 -23.44489 -46.69180 4727 ft 135 kts 117°
2026-04-17 22:42 -23.44927 -46.68275 4475 ft 134 kts 118°
2026-04-17 22:42 -23.45363 -46.67378 4223 ft 134 kts 118°
2026-04-17 22:42 -23.45786 -46.66495 4064 ft 132 kts 117°
2026-04-17 22:42 -23.46206 -46.65599 4118 ft 135 kts 117°
2026-04-17 22:43 -23.46630 -46.64698 4090 ft 134 kts 117°
2026-04-17 22:43 -23.47030 -46.63790 4101 ft 134 kts 112°
2026-04-17 22:43 -23.47240 -46.62797 4099 ft 134 kts 98°
2026-04-17 22:43 -23.47199 -46.61782 4106 ft 134 kts 83°
2026-04-17 22:44 -23.47026 -46.60786 4099 ft 134 kts 78°
2026-04-17 22:44 -23.46811 -46.59813 4101 ft 134 kts 76°
2026-04-17 22:44 -23.46576 -46.58837 4100 ft 134 kts 75°
2026-04-17 22:44 -23.46335 -46.57860 4086 ft 136 kts 75°
2026-04-17 22:45 -23.46067 -46.56785 3953 ft 151 kts 73°
2026-04-17 22:45 -23.45773 -46.55699 3751 ft 149 kts 72°
2026-04-17 22:45 -23.45481 -46.54632 3548 ft 147 kts 72°
2026-04-17 22:45 -23.45194 -46.53576 3360 ft 147 kts 72°
2026-04-17 22:46 -23.44907 -46.52504 3169 ft 146 kts 73°
2026-04-17 22:46 -23.44622 -46.51451 2981 ft 144 kts 72°
2026-04-17 22:46 -23.44338 -46.50413 2797 ft 142 kts 73°
2026-04-17 22:46 -23.44066 -46.49389 2615 ft 141 kts 73°
2026-04-17 22:47 -23.43796 -46.48373 2472 ft 136 kts 73°
2026-04-17 22:47 -23.43566 -46.47503 2467 ft 94 kts 75°
2026-04-17 22:47 -23.43436 -46.47017 2467 ft 42 kts 73°
2026-04-17 22:47 -23.43386 -46.46832 2467 ft 24 kts 74°
2026-04-17 22:48 -23.43334 -46.46641 2467 ft 28 kts 73°
2026-04-17 22:48 -23.43282 -46.46458 2467 ft 16 kts 69°
2026-04-17 22:48 -23.43216 -46.46346 2467 ft 15 kts 44°
2026-04-17 22:48 -23.43128 -46.46253 2467 ft 20 kts 44°
2026-04-17 22:49 -23.43040 -46.46160 2467 ft 9 kts 44°
2026-04-17 22:49 -23.42986 -46.46125 2467 ft 11 kts
2026-04-17 22:49 -23.42897 -46.46142 2467 ft 15 kts 349°
2026-04-17 22:49 -23.42797 -46.46177 2467 ft 11 kts 340°
2026-04-17 22:50 -23.42719 -46.46205 2467 ft 14 kts 343°
2026-04-17 22:50 -23.42630 -46.46234 2467 ft 12 kts 342°
2026-04-17 22:50 -23.42620 -46.46288 2467 ft 8 kts 242°
2026-04-17 22:50 -23.42645 -46.46352 2467 ft 10 kts 251°
2026-04-17 22:51 -23.42667 -46.46433 2467 ft 12 kts 253°
2026-04-17 22:51 -23.42691 -46.46523 2467 ft 13 kts 253°
2026-04-17 22:51 -23.42716 -46.46612 2467 ft 12 kts 253°
2026-04-17 22:51 -23.42740 -46.46698 2467 ft 12 kts 253°
2026-04-17 22:52 -23.42760 -46.46771 2467 ft 9 kts 253°
2026-04-17 22:52 -23.42777 -46.46835 2467 ft 9 kts 253°
2026-04-17 22:52 -23.42795 -46.46898 2467 ft 9 kts 253°
2026-04-17 22:52 -23.42812 -46.46961 2467 ft 9 kts 253°
2026-04-17 22:53 -23.42830 -46.47024 2467 ft 9 kts 253°
2026-04-17 22:53 -23.42847 -46.47086 2467 ft 9 kts 253°
2026-04-17 22:53 -23.42860 -46.47133 2467 ft 9 kts 253°
2026-04-17 22:53 -23.42881 -46.47209 2467 ft 8 kts 253°
2026-04-17 22:54 -23.42898 -46.47270 2467 ft 8 kts 253°
2026-04-17 22:54 -23.42915 -46.47331 2467 ft 8 kts 253°
2026-04-17 22:54 -23.42931 -46.47391 2467 ft 8 kts 253°
2026-04-17 22:54 -23.42948 -46.47451 2467 ft 8 kts 253°
2026-04-17 22:55 -23.42959 -46.47491 2467 ft 8 kts 253°
2026-04-17 22:55 -23.42979 -46.47571 2467 ft 8 kts 255°
2026-04-17 22:55 -23.42994 -46.47631 2467 ft 8 kts 255°
2026-04-17 22:55 -23.43008 -46.47690 2467 ft 8 kts 255°
2026-04-17 22:56 -23.43023 -46.47749 2467 ft 8 kts 255°
2026-04-17 22:56 -23.43028 -46.47804 2467 ft 6 kts 300°
2026-04-17 22:56 -23.42995 -46.47813 2467 ft 5 kts 359°
2026-04-17 22:56 -23.42960 -46.47816 2467 ft 5 kts 350°
2026-04-17 22:57 -23.42924 -46.47823 2467 ft 5 kts 350°
2026-04-17 22:57 -23.42888 -46.47830 2467 ft 5 kts 350°
2026-04-17 22:57 -23.42850 -46.47837 2467 ft 6 kts 349°
2026-04-17 22:57 -23.42837 -46.47861 2467 ft 3 kts 261°
2026-04-17 22:58 -23.42841 -46.47884 2467 ft 3 kts 262°
2026-04-17 22:58 -23.42842 -46.47909 2467 ft 3 kts 266°
2026-04-17 22:58 -23.42844 -46.47934 2467 ft 3 kts 265°
2026-04-17 22:58 -23.42845 -46.47940 2467 ft 0 kts 265°